K3RTA-2 Weather Reports


Display with metric or nautical units.
time (UTC)temp
F
wind
direction
speed
MPH
gust
MPH
rain 1hr
in
rain 24hr
in
rain mn
in
humidity
%
barometer
mb
20260506033504 66 218 1.0 6.0 0.00 0.00 0.00 79 1012.9
20260506033004 66 182 2.0 6.0 0.00 0.00 0.00 79 1013.0
20260506032003 67 222 2.0 5.0 0.00 0.00 0.00 78 1013.1
20260506031004 67 206 2.0 9.0 0.00 0.00 0.00 78 1013.0
20260506030504 67 217 1.0 9.0 0.00 0.00 0.00 78 1012.9
20260506030004 67 206 2.0 9.0 0.00 0.00 0.00 78 1013.0
20260506025504 67 202 2.0 10.0 0.00 0.00 0.00 78 1012.9
20260506025004 67 209 3.0 10.0 0.00 0.00 0.00 78 1013.0
20260506024504 67 226 2.0 9.0 0.00 0.00 0.00 78 1013.0
20260506024004 67 185 2.0 7.0 0.00 0.00 0.00 78 1013.0
20260506023004 67 200 1.0 13.0 0.00 0.00 0.00 77 1013.0
20260506022004 67 227 2.0 8.0 0.00 0.00 0.00 76 1013.0
20260506021505 67 209 2.0 8.0 0.00 0.00 0.00 76 1013.2
20260506020503 67 165 2.0 8.0 0.00 0.00 0.00 76 1013.0
20260506020004 67 208 2.0 9.0 0.00 0.00 0.00 76 1012.9
20260506015004 68 221 3.0 8.0 0.00 0.00 0.00 75 1012.8
20260506014004 68 219 2.0 7.0 0.00 0.00 0.00 75 1012.9
20260506013504 68 223 2.0 7.0 0.00 0.00 0.00 75 1012.7
20260506013004 68 210 2.0 8.0 0.00 0.00 0.00 75 1012.7
20260506012504 68 193 2.0 8.0 0.00 0.00 0.00 74 1012.5
20260506012004 68 193 2.0 7.0 0.00 0.00 0.00 74 1012.5
20260506011504 68 212 2.0 10.0 0.00 0.00 0.00 74 1012.3
20260506011004 68 219 3.0 10.0 0.00 0.00 0.00 74 1012.4
20260506010503 68 209 2.0 6.0 0.00 0.00 0.00 74 1012.2
20260506010003 69 200 2.0 14.0 0.00 0.00 0.00 74 1012.1
20260506005505 69 207 2.0 14.0 0.00 0.00 0.00 73 1012.2
20260506005004 69 224 3.0 8.0 0.00 0.00 0.00 73 1012.1
20260506004004 69 229 2.0 8.0 0.00 0.00 0.00 73 1011.8
20260506003504 69 212 2.0 8.0 0.00 0.00 0.00 72 1011.8
20260506003004 69 207 3.0 12.0 0.00 0.00 0.00 72 1011.8
20260506002503 69 211 3.0 12.0 0.00 0.00 0.00 72 1011.8
20260506002004 69 188 1.0 8.0 0.00 0.00 0.00 71 1011.6
20260506001504 69 202 2.0 8.0 0.00 0.00 0.00 71 1011.7
20260506001004 70 218 2.0 14.0 0.00 0.00 0.00 70 1011.8
20260506000504 70 216 3.0 14.0 0.00 0.00 0.00 69 1011.7
20260506000004 70 204 2.0 10.0 0.00 0.00 0.00 68 1011.6
20260505235504 70 208 2.0 10.0 0.00 0.00 0.00 67 1011.7
20260505235003 71 199 3.0 12.0 0.00 0.00 0.00 66 1011.7
20260505234504 71 204 3.0 12.0 0.00 0.00 0.00 66 1011.6
20260505234003 71 194 2.0 8.0 0.00 0.00 0.00 65 1011.5
20260505233004 72 217 2.0 10.0 0.00 0.00 0.00 63 1011.6
20260505232504 72 203 2.0 10.0 0.00 0.00 0.00 62 1011.5
20260505232004 72 181 1.0 12.0 0.00 0.00 0.00 61 1011.6
20260505231006 73 207 2.0 10.0 0.00 0.00 0.00 60 1011.7
20260505230504 73 199 3.0 7.0 0.00 0.00 0.00 59 1011.6
20260505230004 74 206 2.0 9.0 0.00 0.00 0.00 58 1011.5
20260505225004 74 221 2.0 9.0 0.00 0.00 0.00 57 1011.5
20260505224504 75 209 3.0 9.0 0.00 0.00 0.00 57 1011.5
20260505224004 75 190 2.0 10.0 0.00 0.00 0.00 56 1011.5
20260505223504 75 230 3.0 10.0 0.00 0.00 0.00 55 1011.4
20260505223004 76 220 2.0 9.0 0.00 0.00 0.00 55 1011.5
20260505222503 76 218 4.0 9.0 0.00 0.00 0.00 54 1011.5
20260505221503 77 225 2.0 9.0 0.00 0.00 0.00 54 1011.5
20260505221004 77 230 1.0 14.0 0.00 0.00 0.00 54 1011.4
20260505220504 78 210 5.0 14.0 0.00 0.00 0.00 53 1011.3
20260505220004 78 214 2.0 10.0 0.00 0.00 0.00 53 1011.4
20260505215504 79 178 4.0 10.0 0.00 0.00 0.00 52 1011.3
20260505214504 79 188 2.0 12.0 0.00 0.00 0.00 52 1011.2
20260505213504 80 185 3.0 12.0 0.00 0.00 0.00 51 1011.2
20260505213004 80 190 3.0 12.0 0.00 0.00 0.00 50 1011.2
20260505212504 80 205 2.0 8.0 0.00 0.00 0.00 50 1011.1
20260505212004 81 191 2.0 9.0 0.00 0.00 0.00 49 1011.0
20260505211504 81 200 3.0 13.0 0.00 0.00 0.00 48 1011.0
20260505211003 82 198 3.0 13.0 0.00 0.00 0.00 46 1011.2
20260505210004 82 229 2.0 13.0 0.00 0.00 0.00 40 1011.1
20260505205504 83 212 3.0 13.0 0.00 0.00 0.00 40 1011.2
20260505205004 83 208 2.0 14.0 0.00 0.00 0.00 40 1011.1
20260505204504 83 162 2.0 14.0 0.00 0.00 0.00 40 1011.2
20260505204004 83 221 2.0 15.0 0.00 0.00 0.00 40 1011.2
20260505203005 82 179 5.0 13.0 0.00 0.00 0.00 39 1011.1
20260505202505 82 215 3.0 12.0 0.00 0.00 0.00 40 1011.2
20260505202004 82 193 3.0 14.0 0.00 0.00 0.00 40 1011.3
20260505201504 83 200 4.0 16.0 0.00 0.00 0.00 41 1011.3
20260505201005 83 213 5.0 16.0 0.00 0.00 0.00 40 1011.4
20260505200504 83 191 6.0 15.0 0.00 0.00 0.00 40 1011.4
20260505200004 83 186 2.0 14.0 0.00 0.00 0.00 40 1011.6
20260505195504 83 214 2.0 14.0 0.00 0.00 0.00 40 1011.6
20260505195004 83 191 5.0 14.0 0.00 0.00 0.00 40 1011.6
20260505194504 83 254 4.0 13.0 0.00 0.00 0.00 40 1011.7
20260505194003 84 202 4.0 13.0 0.00 0.00 0.00 39 1011.7
20260505193505 84 197 2.0 13.0 0.00 0.00 0.00 39 1011.8
20260505192503 84 262 1.0 9.0 0.00 0.00 0.00 40 1011.8
20260505192004 84 226 2.0 9.0 0.00 0.00 0.00 40 1011.7
20260505191504 85 311 2.0 12.0 0.00 0.00 0.00 38 1011.7
20260505191004 85 187 2.0 13.0 0.00 0.00 0.00 39 1011.9
20260505190504 84 182 3.0 13.0 0.00 0.00 0.00 39 1011.9
20260505190004 85 184 2.0 10.0 0.00 0.00 0.00 37 1012.0
20260505185504 84 184 2.0 10.0 0.00 0.00 0.00 38 1012.1
20260505185004 84 158 3.0 8.0 0.00 0.00 0.00 39 1012.1
20260505184505 84 203 3.0 8.0 0.00 0.00 0.00 41 1012.1
20260505184004 83 282 2.0 8.0 0.00 0.00 0.00 42 1012.1
20260505183504 83 236 3.0 8.0 0.00 0.00 0.00 40 1012.2
20260505183004 84 205 4.0 9.0 0.00 0.00 0.00 39 1012.1
20260505182504 84 223 3.0 9.0 0.00 0.00 0.00 41 1012.0
20260505182004 83 223 2.0 8.0 0.00 0.00 0.00 42 1012.3
20260505181004 83 216 3.0 10.0 0.00 0.00 0.00 43 1012.3
20260505180504 83 171 3.0 7.0 0.00 0.00 0.00 42 1012.5
20260505180004 84 192 2.0 9.0 0.00 0.00 0.00 43 1012.4
20260505175503 83 200 3.0 9.0 0.00 0.00 0.00 43 1012.5
20260505175004 83 55 1.0 9.0 0.00 0.00 0.00 44 1012.7
20260505174004 83 175 4.0 9.0 0.00 0.00 0.00 44 1012.6
20260505173504 83 130 1.0 12.0 0.00 0.00 0.00 45 1012.6
20260505173004 82 149 2.0 12.0 0.00 0.00 0.00 45 1012.6
20260505172504 82 233 3.0 12.0 0.00 0.00 0.00 45 1012.7
20260505171505 82 148 2.0 9.0 0.00 0.00 0.00 45 1012.8
20260505171005 81 301 3.0 9.0 0.00 0.00 0.00 45 1012.7
20260505170504 82 229 2.0 7.0 0.00 0.00 0.00 46 1012.8
20260505170004 81 260 2.0 10.0 0.00 0.00 0.00 46 1012.8
20260505165004 81 178 3.0 12.0 0.00 0.00 0.00 48 1012.8
20260505164504 81 166 3.0 12.0 0.00 0.00 0.00 47 1012.8
20260505164005 81 168 3.0 10.0 0.00 0.00 0.00 47 1012.9
20260505163004 80 232 2.0 10.0 0.00 0.00 0.00 48 1013.0
20260505162504 80 78 3.0 12.0 0.00 0.00 0.00 48 1012.9
20260505162004 80 246 3.0 12.0 0.00 0.00 0.00 48 1013.0
20260505161004 80 265 2.0 8.0 0.00 0.00 0.00 49 1013.2
20260505160504 80 213 2.0 8.0 0.00 0.00 0.00 50 1013.2
20260505152505 78 206 1.0 8.0 0.00 0.00 0.00 53 1013.3
20260505152004 78 237 2.0 12.0 0.00 0.00 0.00 52 1013.3
20260505151503 78 236 2.0 12.0 0.00 0.00 0.00 52 1013.3
20260505151004 78 190 1.0 7.0 0.00 0.00 0.00 52 1013.3
20260505140505 74 282 3.0 10.0 0.00 0.00 0.00 59 1013.4
20260505125003 70 97 3.0 7.0 0.00 0.00 0.00 64 1013.3
20260505124504 70 147 3.0 7.0 0.00 0.00 0.00 65 1013.3
20260505124004 69 232 2.0 7.0 0.00 0.00 0.00 66 1013.2
20260505123504 69 181 2.0 7.0 0.00 0.00 0.00 67 1013.4
20260505122504 69 193 2.0 5.0 0.00 0.00 0.00 68 1013.3
20260505121504 68 173 1.0 8.0 0.00 0.00 0.00 70 1013.3
20260505120504 67 225 2.0 5.0 0.00 0.00 0.00 72 1013.3
20260505120005 67 199 2.0 5.0 0.00 0.00 0.00 72 1013.2
20260505115505 66 157 1.0 7.0 0.00 0.00 0.00 73 1013.2
20260505115004 66 226 2.0 8.0 0.00 0.00 0.00 73 1013.3
20260505114503 65 230 2.0 8.0 0.00 0.00 0.00 73 1013.3
20260505113504 65 198 3.0 12.0 0.00 0.00 0.00 74 1013.2
20260505113005 64 242 1.0 5.0 0.00 0.00 0.00 75 1013.2
20260505112504 64 214 3.0 5.0 0.00 0.00 0.00 75 1013.2
20260505112004 64 220 1.0 7.0 0.00 0.00 0.00 76 1013.2
20260505111504 63 207 2.0 7.0 0.00 0.00 0.00 76 1013.2
20260505111004 63 174 2.0 7.0 0.00 0.00 0.00 76 1013.2
20260505110503 63 248 1.0 6.0 0.00 0.00 0.00 77 1013.2
20260505102004 62 171 1.0 6.0 0.00 0.00 0.00 78 1012.9
20260505101503 62 174 1.0 6.0 0.00 0.00 0.00 78 1012.9
20260505101005 62 177 1.0 6.0 0.00 0.00 0.00 78 1012.8
20260505095503 62 193 1.0 8.0 0.00 0.00 0.00 77 1012.9
20260505095004 62 180 2.0 8.0 0.00 0.00 0.00 77 1012.7
20260505094504 62 185 1.0 6.0 0.00 0.00 0.00 77 1012.7
20260505094004 62 151 2.0 6.0 0.00 0.00 0.00 77 1012.8
20260505093504 62 187 1.0 6.0 0.00 0.00 0.00 77 1012.7
20260505093004 62 163 0.0 6.0 0.00 0.00 0.00 77 1012.7
20260505092504 62 187 0.0 7.0 0.00 0.00 0.00 77 1012.7
20260505092004 62 163 1.0 7.0 0.00 0.00 0.00 76 1012.6
20260505091505 62 190 1.0 5.0 0.00 0.00 0.00 77 1012.6
20260505091004 62 218 1.0 6.0 0.00 0.00 0.00 76 1012.4
20260505090504 62 178 1.0 6.0 0.00 0.00 0.00 76 1012.3
20260505090004 62 156 2.0 7.0 0.00 0.00 0.00 77 1012.3
20260505085504 62 195 2.0 7.0 0.00 0.00 0.00 77 1012.2
20260505085004 62 158 1.0 6.0 0.00 0.00 0.00 77 1012.3
20260505084504 62 151 2.0 7.0 0.00 0.00 0.00 77 1012.3
20260505084004 62 206 2.0 7.0 0.00 0.00 0.00 77 1012.2
20260505083505 62 213 2.0 7.0 0.00 0.00 0.00 78 1012.3
20260505083004 62 172 1.0 5.0 0.00 0.00 0.00 78 1012.3
20260505081504 62 218 2.0 9.0 0.00 0.00 0.00 79 1012.4
20260505080504 61 164 0.0 2.0 0.00 0.00 0.00 80 1012.5
20260505080004 61 240 0.0 6.0 0.00 0.00 0.00 80 1012.4
20260505075504 61 214 1.0 6.0 0.00 0.00 0.00 80 1012.5
20260505075005 61 212 0.0 3.0 0.00 0.00 0.00 81 1012.4
20260505074503 61 184 0.0 3.0 0.00 0.00 0.00 81 1012.4
20260505073504 61 254 1.0 8.0 0.00 0.00 0.00 82 1012.4
20260505073005 60 218 0.0 5.0 0.00 0.00 0.00 82 1012.4
20260505072504 61 222 0.0 5.0 0.00 0.00 0.00 82 1012.4
20260505072004 60 237 1.0 5.0 0.00 0.00 0.00 82 1012.3
20260505071504 60 242 1.0 3.0 0.00 0.00 0.00 83 1012.3
20260505071005 60 201 0.0 2.0 0.00 0.00 0.00 83 1012.3
20260505070504 61 225 0.0 3.0 0.00 0.00 0.00 83 1012.4
20260505070005 61 221 0.0 3.0 0.00 0.00 0.00 83 1012.3
20260505065503 61 232 0.0 2.0 0.00 0.00 0.00 83 1012.3
20260505065004 61 219 0.0 1.0 0.00 0.00 0.00 83 1012.2
20260505064504 61 229 0.0 3.0 0.00 0.00 0.00 83 1012.2
20260505064004 61 236 1.0 3.0 0.00 0.00 0.00 83 1012.3
20260505063504 61 218 1.0 3.0 0.00 0.00 0.00 83 1012.2
20260505063004 61 240 0.0 3.0 0.00 0.00 0.00 83 1012.1
20260505062504 60 205 1.0 3.0 0.00 0.00 0.00 83 1012.1
20260505062004 61 151 0.0 3.0 0.00 0.00 0.00 83 1012.2
20260505061505 61 235 0.0 3.0 0.00 0.00 0.00 83 1012.0
20260505061005 61 235 0.0 3.0 0.00 0.00 0.00 83 1012.2
20260505060504 61 145 0.0 3.0 0.00 0.00 0.00 83 1012.1
20260505060005 61 229 0.0 3.0 0.00 0.00 0.00 83 1012.2
20260505055003 61 170 0.0 5.0 0.00 0.00 0.00 83 1012.2
20260505054504 61 226 0.0 5.0 0.00 0.00 0.00 82 1012.3
20260505054005 61 230 0.0 3.0 0.00 0.00 0.00 82 1012.2
20260505053504 61 235 0.0 3.0 0.00 0.00 0.00 82 1012.2
20260505053005 61 225 1.0 3.0 0.00 0.00 0.00 82 1012.1
20260505052504 61 224 1.0 3.0 0.00 0.00 0.00 82 1012.2
20260505052004 61 245 0.0 3.0 0.00 0.00 0.00 82 1012.2
20260505051504 61 231 0.0 5.0 0.00 0.00 0.00 82 1012.3
20260505051004 61 213 2.0 5.0 0.00 0.00 0.00 82 1012.3
20260505050504 61 238 1.0 3.0 0.00 0.00 0.00 82 1012.3
20260505041505 62 212 2.0 12.0 0.00 0.00 0.00 80 1012.4
20260505041006 62 233 2.0 12.0 0.00 0.00 0.00 80 1012.5
20260505040504 62 213 1.0 6.0 0.00 0.00 0.00 80 1012.5
20260505040004 62 239 2.0 6.0 0.00 0.00 0.00 80 1012.4
20260505035503 62 222 1.0 8.0 0.00 0.00 0.00 80 1012.4
20260505034004 62 224 2.0 8.0 0.00 0.00 0.00 81 1012.3